User: anonymous   Login
Location: Unspecified
(0.0000°N, 0.0000°E)
Time: 03:10:22
(UTC+00:00)
Language:

OTS 2 - Orbit

View from above orbital plane
View from above orbital plane
View from above satellite
View from above satellite

Ground track
Ground track

The orbit data is extracted from the following two-line orbital elements,

1 10855U 78044A   18172.36330979 -.00000319 +00000-0 +00000-0 0  9995
2 10855 013.6978 331.2988 0008705 296.0767 282.7859 00.99142687175062
Epoch (UTC): 21 June 2018 08:43:09
Eccentricity: 0.0008705
inclination: 13.6978°
perigee height: 36069 km
apogee height: 36143 km
right ascension of ascending node: 331.2988°
argument of perigee: 296.0767°
revolutions per day: 0.99142687
mean anomaly at epoch: 282.7859°
orbit number at epoch: 17506

The dashed part of the orbit path shows where the satellite is in the earth's shadow,  

DLR